,,PA_Meas_PMT16A,,PR_Meas_QMR101_102,,RH_Meas_QMH101,,SR_Meas_QMS101,,TA_Meas_QMH101,,GenWind,,GenWind,
time,status,PA,status,PR,status,RH,status,SR,status,TA,status,DirAvg,status,SpdAvg,
2011-11-03, 00:00:05,VALID,915.898,VALID,0,VALID,97.9685,VALID,0,VALID,18.9799,VALID,117,VALID,0.216016,
2011-11-03, 00:01:05,VALID,915.87,VALID,0,VALID,97.9533,VALID,0,VALID,19.0008,VALID,117,VALID,0.550391,
2011-11-03, 00:02:05,VALID,915.83,VALID,0,VALID,97.9609,VALID,0,VALID,18.9814,VALID,117,VALID,0.724219,
2011-11-03, 00:03:05,VALID,915.806,VALID,0,VALID,97.9456,VALID,0,VALID,18.9814,VALID,118,VALID,0.574609,
2011-11-03, 00:04:05,VALID,915.772,VALID,0,VALID,97.938,VALID,0,VALID,18.9409,VALID,117,VALID,0.818359,
2011-11-03, 00:05:05,VALID,915.767,VALID,0,VALID,97.9533,VALID,0,VALID,18.9619,VALID,121,VALID,0.93125,
2011-11-03, 00:06:05,VALID,915.759,VALID,0,VALID,97.9456,VALID,0,VALID,18.9619,VALID,137,VALID,0.683594,
2011-11-03, 00:07:05,VALID,915.75,VALID,0,VALID,97.9456,VALID,0,VALID,18.9814,VALID,137,VALID,0.696094,
2011-11-03, 00:08:05,VALID,915.774,VALID,0,VALID,97.938,VALID,0,VALID,18.9814,VALID,137,VALID,0.738672,
2011-11-03, 00:09:05,VALID,915.715,VALID,0,VALID,97.9533,VALID,0,VALID,19.0008,VALID,137,VALID,0.770312,
2011-11-03, 00:10:05,VALID,915.729,VALID,0,VALID,97.9456,VALID,0,VALID,19.0008,VALID,140,VALID,1.03281,
2011-11-03, 00:11:05,VALID,915.7,VALID,0,VALID,97.9456,VALID,0,VALID,19.0203,VALID,178,VALID,0.947266,
2011-11-03, 00:12:05,VALID,915.665,VALID,0,VALID,97.9609,VALID,0,VALID,19.0398,VALID,178,VALID,0.732422,
2011-11-03, 00:13:05,VALID,915.644,VALID,0,VALID,97.9456,VALID,0,VALID,19.0398,VALID,178,VALID,0.584375,
2011-11-03, 00:14:05,VALID,915.648,VALID,0,VALID,97.938,VALID,0,VALID,19.0593,VALID,166,VALID,0.517969,
2011-11-03, 00:15:05,VALID,915.627,VALID,0,VALID,97.9761,VALID,0,VALID,19.0593,VALID,166,VALID,0.682031,
2011-11-03, 00:16:05,VALID,915.642,VALID,0,VALID,97.9456,VALID,0,VALID,19.0593,VALID,165,VALID,0.678516,
2011-11-03, 00:17:05,VALID,915.627,VALID,0,VALID,97.938,VALID,0,VALID,19.0398,VALID,165,VALID,0.78125,
2011-11-03, 00:18:05,VALID,915.572,VALID,0,VALID,97.9533,VALID,0,VALID,19.0398,VALID,150,VALID,0.741016,
2011-11-03, 00:19:05,VALID,915.565,VALID,0,VALID,97.9533,VALID,0,VALID,19.0413,VALID,150,VALID,0.717969,
2011-11-03, 00:20:05,VALID,915.557,VALID,0,VALID,97.9533,VALID,0,VALID,19.0203,VALID,135,VALID,0.571484,
2011-11-03, 00:21:05,VALID,915.543,VALID,0,VALID,97.9533,VALID,0,VALID,19.0203,VALID,139,VALID,0.934375,
2011-11-03, 00:22:05,VALID,915.531,VALID,0,VALID,97.9533,VALID,0,VALID,19.0203,VALID,139,VALID,0.554688,
2011-11-03, 00:23:05,VALID,915.529,VALID,0,VALID,97.9456,VALID,0,VALID,19.0008,VALID,139,VALID,0.647656,
2011-11-03, 00:24:05,VALID,915.518,VALID,0,VALID,97.9456,VALID,0,VALID,19.0008,VALID,139,VALID,0.669922,
2011-11-03, 00:25:05,VALID,915.49,VALID,0,VALID,97.9533,VALID,0.107441,VALID,19.0008,VALID,139,VALID,0.662109,
2011-11-03, 00:26:05,VALID,915.469,VALID,0,VALID,97.9533,VALID,0,VALID,19.0008,VALID,139,VALID,0.532422,
2011-11-03, 00:27:05,VALID,915.457,VALID,0,VALID,97.938,VALID,0,VALID,19.0008,VALID,139,VALID,0.331641,
2011-11-03, 00:28:05,VALID,915.443,VALID,0,VALID,97.9609,VALID,0,VALID,18.9814,VALID,139,VALID,0.353125,
2011-11-03, 00:29:05,VALID,915.418,VALID,0,VALID,97.9609,VALID,0,VALID,18.9814,VALID,139,VALID,0.657422,
2011-11-03, 00:30:05,VALID,915.417,VALID,0,VALID,97.9304,VALID,0,VALID,18.9619,VALID,139,VALID,0.551562,
2011-11-03, 00:31:05,VALID,915.381,VALID,0,VALID,97.9533,VALID,0,VALID,18.9604,VALID,139,VALID,0.265625,
2011-11-03, 00:32:04,VALID,915.393,VALID,0,VALID,97.938,VALID,0,VALID,18.9814,VALID,139,VALID,0.204688,
2011-11-03, 00:33:04,VALID,915.375,VALID,0,VALID,97.9685,VALID,0,VALID,18.9814,VALID,139,VALID,0.309766,
2011-11-03, 00:34:04,VALID,915.345,VALID,0,VALID,97.9761,VALID,0,VALID,18.9828,VALID,139,VALID,0,
2011-11-03, 00:35:04,VALID,915.335,VALID,0,VALID,97.9685,VALID,0,VALID,18.9619,VALID,139,VALID,0.787891,
2011-11-03, 00:36:04,VALID,915.353,VALID,0,VALID,97.9456,VALID,0,VALID,18.9619,VALID,139,VALID,0.386719,
2011-11-03, 00:37:04,VALID,915.337,VALID,0,VALID,97.9533,VALID,0,VALID,18.9619,VALID,139,VALID,0.216797,
2011-11-03, 00:38:04,VALID,915.339,VALID,0,VALID,97.9685,VALID,0,VALID,18.9619,VALID,139,VALID,0.285547,
2011-11-03, 00:39:04,VALID,915.314,VALID,0,VALID,97.9533,VALID,0,VALID,19.0023,VALID,139,VALID,0.224219,
2011-11-03, 00:40:04,VALID,915.34,VALID,0,VALID,97.9533,VALID,0,VALID,18.9814,VALID,139,VALID,0.580859,
2011-11-03, 00:41:04,VALID,915.359,VALID,0,VALID,97.9456,VALID,0,VALID,19.0008,VALID,169,VALID,0.932422,
2011-11-03, 00:42:04,VALID,915.34,VALID,0,VALID,97.9533,VALID,0,VALID,19.0008,VALID,148,VALID,0.601563,
2011-11-03, 00:43:04,VALID,915.355,VALID,0,VALID,97.9761,VALID,0,VALID,19.0008,VALID,180,VALID,0.997656,
2011-11-03, 00:44:04,VALID,915.338,VALID,0,VALID,97.9533,VALID,0,VALID,19.0008,VALID,183,VALID,0.622266,
2011-11-03, 00:45:04,VALID,915.367,VALID,0,VALID,97.9533,VALID,0,VALID,19.0008,VALID,183,VALID,0.674609,
2011-11-03, 00:46:04,VALID,915.385,VALID,0,VALID,97.9685,VALID,0,VALID,19.0203,VALID,183,VALID,0.781641,
2011-11-03, 00:47:04,VALID,915.377,VALID,0,VALID,97.9456,VALID,0,VALID,18.9799,VALID,183,VALID,0.671875,
2011-11-03, 00:48:04,VALID,915.412,VALID,0,VALID,97.9685,VALID,0,VALID,19.0008,VALID,183,VALID,0.680859,
2011-11-03, 00:49:04,VALID,915.385,VALID,0,VALID,97.9609,VALID,0,VALID,19.0203,VALID,183,VALID,0.596484,
2011-11-03, 00:50:04,VALID,915.374,VALID,0,VALID,97.9533,VALID,0,VALID,19.0008,VALID,183,VALID,0.987891,
2011-11-03, 00:51:04,VALID,915.4,VALID,0,VALID,97.9456,VALID,0,VALID,19.0203,VALID,183,VALID,0.964063,
2011-11-03, 00:52:04,VALID,915.415,VALID,0,VALID,97.9456,VALID,0,VALID,19.0203,VALID,183,VALID,0.316797,
2011-11-03, 00:53:04,VALID,915.444,VALID,0,VALID,97.938,VALID,0,VALID,19.0203,VALID,183,VALID,0.367969,
2011-11-03, 00:54:04,VALID,915.417,VALID,0,VALID,97.9609,VALID,0,VALID,19.0008,VALID,183,VALID,0.861328,
2011-11-03, 00:55:04,VALID,915.397,VALID,0,VALID,97.9533,VALID,0,VALID,19.0413,VALID,183,VALID,0.722656,
2011-11-03, 00:56:04,VALID,915.417,VALID,0,VALID,97.9609,VALID,0,VALID,19.0203,VALID,184,VALID,0.240625,
2011-11-03, 00:57:04,VALID,915.417,VALID,0,VALID,97.9533,VALID,0,VALID,19.0203,VALID,183,VALID,0.667578,
2011-11-03, 00:58:04,VALID,915.401,VALID,0,VALID,97.9456,VALID,0,VALID,19.0203,VALID,183,VALID,0.646875,
2011-11-03, 00:59:04,VALID,915.42,VALID,0,VALID,97.9456,VALID,0,VALID,19.0203,VALID,183,VALID,0.633594,
2011-11-03, 01:00:04,VALID,915.4,VALID,0,VALID,97.9456,VALID,0,VALID,19.0203,VALID,179,VALID,1.29961,
2011-11-03, 01:01:04,VALID,915.403,VALID,0,VALID,97.9609,VALID,0,VALID,19.0203,VALID,176,VALID,0.496484,
2011-11-03, 01:02:04,VALID,915.39,VALID,0,VALID,97.9609,VALID,0,VALID,19.0398,VALID,176,VALID,0.371484,
2011-11-03, 01:03:04,VALID,915.405,VALID,0,VALID,97.9609,VALID,0,VALID,19.0398,VALID,176,VALID,0.5875,
2011-11-03, 01:04:04,VALID,915.372,VALID,0,VALID,97.9533,VALID,0,VALID,19.0593,VALID,176,VALID,0.4875,
2011-11-03, 01:05:04,VALID,915.356,VALID,0,VALID,97.9456,VALID,0,VALID,19.0398,VALID,176,VALID,0.633203,
2011-11-03, 01:06:04,VALID,915.34,VALID,0,VALID,97.938,VALID,0,VALID,19.0398,VALID,176,VALID,0.360156,
2011-11-03, 01:07:04,VALID,915.386,VALID,0,VALID,97.938,VALID,0,VALID,19.0593,VALID,176,VALID,0.721094,
2011-11-03, 01:08:04,VALID,915.349,VALID,0,VALID,97.9228,VALID,0,VALID,19.0398,VALID,176,VALID,0.5375,
2011-11-03, 01:09:04,VALID,915.35,VALID,0,VALID,97.9152,VALID,0,VALID,19.0398,VALID,176,VALID,0.5375,
2011-11-03, 01:10:04,VALID,915.334,VALID,0,VALID,97.9456,VALID,0,VALID,19.0398,VALID,176,VALID,0.0164062,
2011-11-03, 01:11:04,VALID,915.341,VALID,0,VALID,97.9304,VALID,0,VALID,19.0398,VALID,176,VALID,0.202344,
2011-11-03, 01:12:04,VALID,915.315,VALID,0,VALID,97.9456,VALID,0,VALID,19.0203,VALID,176,VALID,0.433203,
2011-11-03, 01:13:04,VALID,915.277,VALID,0,VALID,97.938,VALID,0,VALID,19.0203,VALID,176,VALID,0.324219,
2011-11-03, 01:14:04,VALID,915.255,VALID,0,VALID,97.9304,VALID,0,VALID,19.0413,VALID,176,VALID,0,
2011-11-03, 01:15:04,VALID,915.277,VALID,0,VALID,97.9228,VALID,0,VALID,19.0008,VALID,176,VALID,0,
2011-11-03, 01:16:04,VALID,915.287,VALID,0,VALID,97.9152,VALID,0,VALID,19.0203,VALID,176,VALID,0,
2011-11-03, 01:17:04,VALID,915.275,VALID,0,VALID,97.9228,VALID,0,VALID,19.0203,VALID,176,VALID,0,
2011-11-03, 01:18:04,VALID,915.264,VALID,0,VALID,97.938,VALID,0,VALID,19.0203,VALID,176,VALID,0.48125,
2011-11-03, 01:19:04,VALID,915.244,VALID,0,VALID,97.9152,VALID,0,VALID,19.0203,VALID,176,VALID,0.407031,
2011-11-03, 01:20:04,VALID,915.224,VALID,0,VALID,97.9075,VALID,0,VALID,19.0398,VALID,176,VALID,0.135547,
2011-11-03, 01:21:04,VALID,915.264,VALID,0,VALID,97.9152,VALID,0,VALID,19.0593,VALID,176,VALID,0.292969,
2011-11-03, 01:22:04,VALID,915.239,VALID,0,VALID,97.8999,VALID,0,VALID,19.0608,VALID,176,VALID,0.669531,
2011-11-03, 01:23:04,VALID,915.235,VALID,0,VALID,97.9152,VALID,0,VALID,19.0803,VALID,176,VALID,0.167187,
2011-11-03, 01:24:04,VALID,915.263,VALID,0,VALID,97.8999,VALID,0,VALID,19.0788,VALID,176,VALID,0.399609,
2011-11-03, 01:25:04,VALID,915.249,VALID,0,VALID,97.8847,VALID,0,VALID,19.0788,VALID,176,VALID,0.498828,
2011-11-03, 01:26:04,VALID,915.253,VALID,0,VALID,97.877,VALID,0,VALID,19.0608,VALID,176,VALID,0.314844,
2011-11-03, 01:27:04,VALID,915.28,VALID,0,VALID,97.8923,VALID,0,VALID,19.0593,VALID,176,VALID,0.201562,
2011-11-03, 01:28:04,VALID,915.231,VALID,0,VALID,97.8999,VALID,0,VALID,19.0593,VALID,176,VALID,0.266406,
2011-11-03, 01:29:04,VALID,915.232,VALID,0,VALID,97.877,VALID,0,VALID,19.0593,VALID,176,VALID,0.571484,
2011-11-03, 01:30:04,VALID,915.248,VALID,0,VALID,97.8847,VALID,0,VALID,19.0398,VALID,176,VALID,0.464844,
2011-11-03, 01:31:04,VALID,915.232,VALID,0,VALID,97.877,VALID,0,VALID,19.0398,VALID,176,VALID,0.297266,
2011-11-03, 01:32:04,VALID,915.196,VALID,0,VALID,97.8847,VALID,0,VALID,19.0593,VALID,176,VALID,0.682422,
2011-11-03, 01:33:04,VALID,915.177,VALID,0,VALID,97.8923,VALID,0,VALID,19.0593,VALID,176,VALID,0.864453,
2011-11-03, 01:34:04,VALID,915.138,VALID,0,VALID,97.8999,VALID,0,VALID,19.0398,VALID,63,VALID,1.21563,
2011-11-03, 01:35:04,VALID,915.089,VALID,0,VALID,97.9075,VALID,0,VALID,19.0398,VALID,63,VALID,1.99688,
2011-11-03, 01:36:04,VALID,915.082,VALID,0,VALID,97.8847,VALID,0,VALID,19.0593,VALID,63,VALID,1.81133,
2011-11-03, 01:37:04,VALID,915.068,VALID,0,VALID,97.8618,VALID,0,VALID,19.0983,VALID,63,VALID,1.35625,
2011-11-03, 01:38:04,VALID,915.028,VALID,0,VALID,97.8542,VALID,0,VALID,19.0983,VALID,62,VALID,1.41289,
2011-11-03, 01:39:04,VALID,914.989,VALID,0,VALID,97.8389,VALID,0,VALID,19.1193,VALID,44,VALID,1.53672,
2011-11-03, 01:40:04,VALID,915.011,VALID,0,VALID,97.8237,VALID,0,VALID,19.1568,VALID,45,VALID,0.8125,
2011-11-03, 01:41:04,VALID,915.024,VALID,0,VALID,97.7932,VALID,0,VALID,19.1778,VALID,45,VALID,0.438281,
2011-11-03, 01:42:04,VALID,914.989,VALID,0,VALID,97.816,VALID,0,VALID,19.1763,VALID,45,VALID,0,
2011-11-03, 01:43:04,VALID,915.012,VALID,0,VALID,97.8084,VALID,0,VALID,19.1778,VALID,45,VALID,0,
2011-11-03, 01:44:04,VALID,915.008,VALID,0,VALID,97.7932,VALID,0,VALID,19.1568,VALID,45,VALID,0.34375,
2011-11-03, 01:45:04,VALID,914.978,VALID,0,VALID,97.7703,VALID,0,VALID,19.1583,VALID,45,VALID,0.495313,
2011-11-03, 01:46:04,VALID,914.99,VALID,0,VALID,97.7703,VALID,0,VALID,19.1583,VALID,45,VALID,0.521875,
2011-11-03, 01:47:04,VALID,914.983,VALID,0.2,VALID,97.7627,VALID,0,VALID,19.1388,VALID,45,VALID,0.0121094,
2011-11-03, 01:48:04,VALID,914.969,VALID,0,VALID,97.7551,VALID,0,VALID,19.1178,VALID,45,VALID,0.0667969,
2011-11-03, 01:49:04,VALID,914.963,VALID,0,VALID,97.7474,VALID,0,VALID,19.0983,VALID,45,VALID,0.417578,
2011-11-03, 01:50:04,VALID,914.937,VALID,0,VALID,97.7322,VALID,0,VALID,19.1778,VALID,45,VALID,0.346875,
2011-11-03, 01:51:04,VALID,914.939,VALID,0,VALID,97.7398,VALID,0,VALID,19.1568,VALID,45,VALID,0.266797,
2011-11-03, 01:52:04,VALID,914.896,VALID,0,VALID,97.7474,VALID,0,VALID,19.1373,VALID,44,VALID,0.0761719,
2011-11-03, 01:53:04,VALID,914.897,VALID,0,VALID,97.7551,VALID,0,VALID,19.1568,VALID,45,VALID,0.583203,
2011-11-03, 01:54:04,VALID,914.912,VALID,0,VALID,97.7322,VALID,0,VALID,19.1568,VALID,45,VALID,0.483984,
2011-11-03, 01:55:04,VALID,914.91,VALID,0,VALID,97.7246,VALID,0,VALID,19.1568,VALID,45,VALID,0.586719,
2011-11-03, 01:56:04,VALID,914.895,VALID,0,VALID,97.7474,VALID,0,VALID,19.1583,VALID,45,VALID,0.442187,
2011-11-03, 01:57:04,VALID,914.902,VALID,0,VALID,97.7246,VALID,0,VALID,19.1583,VALID,45,VALID,0.0890625,
2011-11-03, 01:58:04,VALID,914.862,VALID,0,VALID,97.7322,VALID,0,VALID,19.0983,VALID,45,VALID,0.419922,
2011-11-03, 01:59:04,VALID,914.857,VALID,0,VALID,97.7322,VALID,0,VALID,19.0788,VALID,45,VALID,0.456641,
2011-11-03, 02:00:04,VALID,914.866,VALID,0,VALID,97.7398,VALID,0,VALID,19.0788,VALID,45,VALID,0.214844,
2011-11-03, 02:01:04,VALID,914.846,VALID,0,VALID,97.7551,VALID,0,VALID,19.0803,VALID,45,VALID,0.225781,
2011-11-03, 02:02:04,VALID,914.841,VALID,0,VALID,97.7246,VALID,0,VALID,19.0788,VALID,45,VALID,0.211328,
2011-11-03, 02:03:04,VALID,914.819,VALID,0,VALID,97.7474,VALID,0,VALID,19.0788,VALID,45,VALID,0.399609,
2011-11-03, 02:04:04,VALID,914.838,VALID,0,VALID,97.7398,VALID,0,VALID,19.0593,VALID,45,VALID,0.212109,
2011-11-03, 02:05:04,VALID,914.826,VALID,0,VALID,97.7322,VALID,0,VALID,19.0593,VALID,44,VALID,0.736719,
2011-11-03, 02:06:04,VALID,914.795,VALID,0,VALID,97.7551,VALID,0,VALID,19.0593,VALID,44,VALID,0.201953,
2011-11-03, 02:07:04,VALID,914.762,VALID,0,VALID,97.7627,VALID,0,VALID,19.0788,VALID,45,VALID,0.785937,
2011-11-03, 02:08:04,VALID,914.755,VALID,0,VALID,97.7856,VALID,0,VALID,19.1193,VALID,45,VALID,0.994141,
2011-11-03, 02:09:04,VALID,914.742,VALID,0,VALID,97.7627,VALID,0,VALID,19.1193,VALID,45,VALID,1.02109,
2011-11-03, 02:10:04,VALID,914.729,VALID,0,VALID,97.7627,VALID,0,VALID,19.0983,VALID,45,VALID,0.552344,
2011-11-03, 02:11:04,VALID,914.749,VALID,0,VALID,97.7703,VALID,0,VALID,19.0983,VALID,45,VALID,0.396484,
2011-11-03, 02:12:04,VALID,914.704,VALID,0,VALID,97.7551,VALID,0,VALID,19.0788,VALID,45,VALID,0.416797,
2011-11-03, 02:13:04,VALID,914.687,VALID,0,VALID,97.7856,VALID,0,VALID,19.0593,VALID,45,VALID,0,
2011-11-03, 02:14:04,VALID,914.67,VALID,0,VALID,97.7779,VALID,0,VALID,19.0593,VALID,45,VALID,0.990234,
2011-11-03, 02:15:04,VALID,914.655,VALID,0,VALID,97.7703,VALID,0,VALID,19.0203,VALID,45,VALID,0.726172,
2011-11-03, 02:16:04,VALID,914.644,VALID,0,VALID,97.7779,VALID,0,VALID,19.0008,VALID,45,VALID,0.515625,
2011-11-03, 02:17:04,VALID,914.636,VALID,0,VALID,97.7932,VALID,0,VALID,19.0203,VALID,45,VALID,0.409375,
2011-11-03, 02:18:04,VALID,914.609,VALID,0,VALID,97.7932,VALID,0,VALID,19.0413,VALID,45,VALID,0.784766,
2011-11-03, 02:19:04,VALID,914.625,VALID,0,VALID,97.7856,VALID,0,VALID,19.0008,VALID,45,VALID,0.609375,
2011-11-03, 02:20:04,VALID,914.623,VALID,0,VALID,97.7856,VALID,0,VALID,19.0008,VALID,45,VALID,0.291406,
2011-11-03, 02:21:04,VALID,914.625,VALID,0,VALID,97.7932,VALID,0,VALID,19.0203,VALID,45,VALID,0,
2011-11-03, 02:22:04,VALID,914.646,VALID,0,VALID,97.7856,VALID,0,VALID,19.0203,VALID,45,VALID,0.255469,
2011-11-03, 02:23:04,VALID,914.638,VALID,0,VALID,97.8008,VALID,0,VALID,19.0608,VALID,45,VALID,0.601563,
2011-11-03, 02:24:04,VALID,914.624,VALID,0,VALID,97.8084,VALID,0,VALID,19.0203,VALID,45,VALID,0.307422,
2011-11-03, 02:25:04,VALID,914.619,VALID,0,VALID,97.8084,VALID,0,VALID,19.0398,VALID,45,VALID,0.141016,
2011-11-03, 02:26:04,VALID,914.645,VALID,0,VALID,97.816,VALID,0,VALID,19.0398,VALID,45,VALID,0,
2011-11-03, 02:27:04,VALID,914.637,VALID,0,VALID,97.8008,VALID,0,VALID,19.0593,VALID,44,VALID,0,
2011-11-03, 02:28:04,VALID,914.593,VALID,0,VALID,97.7779,VALID,0,VALID,19.0593,VALID,44,VALID,0,
2011-11-03, 02:29:04,VALID,914.615,VALID,0,VALID,97.8084,VALID,0,VALID,19.0593,VALID,45,VALID,0,
2011-11-03, 02:30:04,VALID,914.614,VALID,0,VALID,97.816,VALID,0.107441,VALID,19.0998,VALID,45,VALID,0,
2011-11-03, 02:31:04,VALID,914.594,VALID,0,VALID,97.8084,VALID,0,VALID,19.0998,VALID,44,VALID,0.533203,
2011-11-03, 02:32:04,VALID,914.588,VALID,0,VALID,97.8313,VALID,0,VALID,19.0788,VALID,44,VALID,0.289063,
2011-11-03, 02:33:04,VALID,914.615,VALID,0,VALID,97.816,VALID,0,VALID,19.0998,VALID,44,VALID,0.291016,
2011-11-03, 02:34:04,VALID,914.583,VALID,0,VALID,97.8389,VALID,0,VALID,19.0803,VALID,44,VALID,0,
2011-11-03, 02:35:04,VALID,914.583,VALID,0,VALID,97.8237,VALID,0,VALID,19.0788,VALID,45,VALID,0.244531,
2011-11-03, 02:36:04,VALID,914.606,VALID,0,VALID,97.8237,VALID,0,VALID,19.0788,VALID,45,VALID,0.642578,
2011-11-03, 02:37:04,VALID,914.584,VALID,0,VALID,97.8389,VALID,0,VALID,19.0398,VALID,45,VALID,0.451953,
2011-11-03, 02:38:04,VALID,914.531,VALID,0,VALID,97.8465,VALID,0,VALID,19.0593,VALID,45,VALID,0.0046875,
2011-11-03, 02:39:04,VALID,914.516,VALID,0,VALID,97.8313,VALID,0,VALID,19.1193,VALID,45,VALID,0.300391,
2011-11-03, 02:40:04,VALID,914.487,VALID,0,VALID,97.8237,VALID,0,VALID,19.1178,VALID,45,VALID,0.284375,
2011-11-03, 02:41:04,VALID,914.495,VALID,0,VALID,97.8313,VALID,0,VALID,19.0803,VALID,45,VALID,0.466016,
2011-11-03, 02:42:04,VALID,914.507,VALID,0,VALID,97.8389,VALID,0,VALID,19.0398,VALID,45,VALID,0.0515625,
2011-11-03, 02:43:04,VALID,914.494,VALID,0,VALID,97.816,VALID,0,VALID,19.0593,VALID,45,VALID,0.334766,
2011-11-03, 02:44:04,VALID,914.505,VALID,0,VALID,97.8542,VALID,0,VALID,19.0203,VALID,45,VALID,0.897656,
2011-11-03, 02:45:04,VALID,914.526,VALID,0,VALID,97.8465,VALID,0,VALID,19.0203,VALID,44,VALID,0.429297,
2011-11-03, 02:46:04,VALID,914.512,VALID,0.2,VALID,97.8465,VALID,0,VALID,19.0203,VALID,45,VALID,0.265234,
2011-11-03, 02:47:04,VALID,914.51,VALID,0,VALID,97.8542,VALID,0,VALID,19.0398,VALID,45,VALID,0.110547,
2011-11-03, 02:48:04,VALID,914.486,VALID,0,VALID,97.8313,VALID,0,VALID,19.0593,VALID,45,VALID,0,
2011-11-03, 02:49:04,VALID,914.455,VALID,0,VALID,97.8618,VALID,0,VALID,19.0593,VALID,44,VALID,0,
2011-11-03, 02:50:04,VALID,914.441,VALID,0,VALID,97.8465,VALID,0,VALID,19.0593,VALID,45,VALID,0,
2011-11-03, 02:51:04,VALID,914.456,VALID,0,VALID,97.8465,VALID,0,VALID,19.0788,VALID,45,VALID,0,
2011-11-03, 02:52:04,VALID,914.452,VALID,0,VALID,97.8465,VALID,0,VALID,19.0788,VALID,45,VALID,0,
2011-11-03, 02:53:04,VALID,914.443,VALID,0,VALID,97.8465,VALID,0,VALID,19.0593,VALID,45,VALID,0,
2011-11-03, 02:54:04,VALID,914.446,VALID,0,VALID,97.8389,VALID,0,VALID,19.0398,VALID,45,VALID,0,
2011-11-03, 02:55:04,VALID,914.447,VALID,0,VALID,97.8694,VALID,0,VALID,19.0398,VALID,45,VALID,0.378906,
2011-11-03, 02:56:04,VALID,914.455,VALID,0,VALID,97.877,VALID,0,VALID,19.0593,VALID,44,VALID,0.475391,
2011-11-03, 02:57:04,VALID,914.468,VALID,0,VALID,97.877,VALID,0,VALID,19.0593,VALID,45,VALID,0.645312,
2011-11-03, 02:58:04,VALID,914.449,VALID,0,VALID,97.8389,VALID,0,VALID,19.0593,VALID,77,VALID,0.441406,
2011-11-03, 02:59:04,VALID,914.451,VALID,0,VALID,97.8694,VALID,0,VALID,19.0398,VALID,77,VALID,0.546875,
2011-11-03, 03:00:04,VALID,914.385,VALID,0.2,VALID,97.8618,VALID,0,VALID,19.0593,VALID,77,VALID,0.546484,
2011-11-03, 03:01:04,VALID,914.356,VALID,0,VALID,97.8389,VALID,0,VALID,19.0803,VALID,77,VALID,0.668359,
2011-11-03, 03:02:04,VALID,914.393,VALID,0,VALID,97.8542,VALID,0,VALID,19.0983,VALID,77,VALID,0.346875,
2011-11-03, 03:03:04,VALID,914.397,VALID,0,VALID,97.8542,VALID,0,VALID,19.0788,VALID,77,VALID,0.19375,
2011-11-03, 03:04:04,VALID,914.374,VALID,0,VALID,97.877,VALID,0,VALID,19.0983,VALID,77,VALID,0,
2011-11-03, 03:05:04,VALID,914.326,VALID,0,VALID,97.8694,VALID,0,VALID,19.0983,VALID,77,VALID,0.694141,
2011-11-03, 03:06:04,VALID,914.318,VALID,0,VALID,97.877,VALID,0,VALID,19.0983,VALID,44,VALID,1.25117,
2011-11-03, 03:07:04,VALID,914.302,VALID,0,VALID,97.8465,VALID,0,VALID,19.0998,VALID,23,VALID,1.30234,
2011-11-03, 03:08:04,VALID,914.324,VALID,0,VALID,97.8618,VALID,0,VALID,19.0803,VALID,23,VALID,0.777344,
2011-11-03, 03:09:04,VALID,914.362,VALID,0,VALID,97.8694,VALID,0,VALID,19.0593,VALID,23,VALID,0.899219,
2011-11-03, 03:10:04,VALID,914.371,VALID,0,VALID,97.8847,VALID,0,VALID,19.0788,VALID,23,VALID,0.881641,
2011-11-03, 03:11:04,VALID,914.377,VALID,0,VALID,97.877,VALID,0,VALID,19.0983,VALID,23,VALID,0.760547,
2011-11-03, 03:12:04,VALID,914.394,VALID,0,VALID,97.8923,VALID,0,VALID,19.1178,VALID,23,VALID,0.327344,
2011-11-03, 03:13:04,VALID,914.401,VALID,0,VALID,97.8694,VALID,0,VALID,19.1373,VALID,23,VALID,0.587109,
2011-11-03, 03:14:04,VALID,914.366,VALID,0,VALID,97.8847,VALID,0,VALID,19.1373,VALID,23,VALID,1.08555,
2011-11-03, 03:15:04,VALID,914.359,VALID,0,VALID,97.8847,VALID,0,VALID,19.1388,VALID,29,VALID,1.21563,
2011-11-03, 03:16:04,VALID,914.367,VALID,0,VALID,97.8694,VALID,0,VALID,19.0983,VALID,29,VALID,0.701563,
2011-11-03, 03:17:04,VALID,914.329,VALID,0,VALID,97.877,VALID,0,VALID,19.0788,VALID,29,VALID,0.458594,
2011-11-03, 03:18:04,VALID,914.352,VALID,0,VALID,97.8923,VALID,0,VALID,19.0593,VALID,29,VALID,0.634375,
2011-11-03, 03:19:04,VALID,914.364,VALID,0,VALID,97.877,VALID,0,VALID,19.0593,VALID,29,VALID,0.511328,
2011-11-03, 03:20:04,VALID,914.376,VALID,0,VALID,97.8999,VALID,0,VALID,19.0398,VALID,29,VALID,0.171094,
2011-11-03, 03:21:04,VALID,914.409,VALID,0,VALID,97.8694,VALID,0,VALID,19.0398,VALID,29,VALID,0.0167969,
2011-11-03, 03:22:04,VALID,914.408,VALID,0,VALID,97.9075,VALID,0,VALID,19.0593,VALID,29,VALID,0.959766,
2011-11-03, 03:23:04,VALID,914.415,VALID,0,VALID,97.8923,VALID,0,VALID,19.0593,VALID,29,VALID,0.997656,
2011-11-03, 03:24:04,VALID,914.397,VALID,0.2,VALID,97.8923,VALID,0,VALID,19.0593,VALID,40,VALID,1.01641,
2011-11-03, 03:25:04,VALID,914.401,VALID,0,VALID,97.8923,VALID,0,VALID,19.0203,VALID,40,VALID,0.653125,
2011-11-03, 03:26:04,VALID,914.433,VALID,0,VALID,97.9152,VALID,0,VALID,19.0413,VALID,350,VALID,0.673437,
2011-11-03, 03:27:04,VALID,914.463,VALID,0,VALID,97.9075,VALID,0,VALID,19.0203,VALID,350,VALID,1.00898,
2011-11-03, 03:28:04,VALID,914.497,VALID,0,VALID,97.877,VALID,0,VALID,19.0008,VALID,309,VALID,0.528906,
2011-11-03, 03:29:04,VALID,914.496,VALID,0,VALID,97.9075,VALID,0,VALID,19.0203,VALID,309,VALID,0.238281,
2011-11-03, 03:30:04,VALID,914.481,VALID,0.2,VALID,97.9075,VALID,0,VALID,19.0203,VALID,309,VALID,0.717188,
2011-11-03, 03:31:04,VALID,914.468,VALID,0,VALID,97.8923,VALID,0,VALID,19.0398,VALID,349,VALID,0.7875,
2011-11-03, 03:32:04,VALID,914.457,VALID,0,VALID,97.9152,VALID,0,VALID,19.0608,VALID,349,VALID,0.488672,
2011-11-03, 03:33:04,VALID,914.484,VALID,0,VALID,97.9152,VALID,0,VALID,19.0398,VALID,349,VALID,0.0578125,
2011-11-03, 03:34:04,VALID,914.491,VALID,0.2,VALID,97.9075,VALID,0,VALID,19.0593,VALID,349,VALID,0.015625,
2011-11-03, 03:35:04,VALID,914.493,VALID,0,VALID,97.9228,VALID,0,VALID,19.0593,VALID,349,VALID,0.982031,
2011-11-03, 03:36:04,VALID,914.521,VALID,0,VALID,97.8923,VALID,0,VALID,19.0398,VALID,341,VALID,0.906641,
2011-11-03, 03:37:04,VALID,914.492,VALID,0,VALID,97.9152,VALID,0,VALID,19.0203,VALID,341,VALID,1.15078,
2011-11-03, 03:38:04,VALID,914.467,VALID,0.2,VALID,97.9075,VALID,0,VALID,19.0203,VALID,341,VALID,0.667578,
2011-11-03, 03:39:04,VALID,914.449,VALID,0,VALID,97.8923,VALID,0,VALID,19.0593,VALID,341,VALID,0.65625,
2011-11-03, 03:40:04,VALID,914.417,VALID,0,VALID,97.8999,VALID,0,VALID,19.0593,VALID,341,VALID,0.816406,
2011-11-03, 03:41:04,VALID,914.447,VALID,0,VALID,97.9152,VALID,0,VALID,19.0593,VALID,341,VALID,0.9,
2011-11-03, 03:42:04,VALID,914.441,VALID,0,VALID,97.8999,VALID,0,VALID,19.0398,VALID,341,VALID,1.1582,
2011-11-03, 03:43:04,VALID,914.454,VALID,0,VALID,97.9533,VALID,0,VALID,19.0218,VALID,341,VALID,0.658984,
2011-11-03, 03:44:04,VALID,914.425,VALID,0,VALID,97.9228,VALID,0,VALID,19.0203,VALID,341,VALID,0.445313,
2011-11-03, 03:45:04,VALID,914.417,VALID,0.2,VALID,97.9075,VALID,0,VALID,19.0203,VALID,341,VALID,0.64375,
2011-11-03, 03:46:04,VALID,914.391,VALID,0,VALID,97.9152,VALID,0,VALID,19.0608,VALID,341,VALID,0.734375,